• In Netherlands
  • List of Countries
  • For 7 days
  • Water Temperature
  • Satellite Maps
  • Weather Map
  • Weather Widgets
  • user-avatar
    Login

    Hourly Weather Reno

    Today, 22 July, Sunday

    Time Temperature Precipitation Wind Pressure Humidity
    00:00 +23°C° 0.2 mm 2 mps 648 mmHg 62%
    01:00 +21°C° 0.2 mm 2 mps 648 mmHg 63%
    02:00 +21°C° 0.2 mm 2 mps 648 mmHg 64%
    03:00 +21°C° 0.2 mm 2 mps 648 mmHg 65%
    04:00 +21°C° 0 mm 1 mps 648 mmHg 68%
    05:00 +22°C° 0.3 mm 1 mps 649 mmHg 65%
    06:00 +23°C° 0.3 mm 1 mps 649 mmHg 63%
    07:00 +24°C° 0.3 mm 1 mps 650 mmHg 60%
    08:00 +26°C° 0.2 mm 1 mps 650 mmHg 53%
    09:00 +28°C° 0.2 mm 1 mps 651 mmHg 46%
    10:00 +30°C° 0.2 mm 1 mps 651 mmHg 38%
    11:00 +30°C° 0.1 mm 1 mps 651 mmHg 36%
    12:00 +31°C° 0.1 mm 1 mps 651 mmHg 34%
    13:00 +32°C° 0.1 mm 1 mps 651 mmHg 32%
    14:00 +32°C° 0.1 mm 1 mps 651 mmHg 34%
    15:00 +31°C° 0.1 mm 2 mps 651 mmHg 35%
    16:00 +31°C° 0.1 mm 2 mps 650 mmHg 37%
    17:00 +30°C° 0.2 mm 2 mps 650 mmHg 40%
    18:00 +29°C° 0.2 mm 2 mps 650 mmHg 44%
    19:00 +28°C° 0.2 mm 3 mps 650 mmHg 48%
    20:00 +27°C° 0.5 mm 2 mps 650 mmHg 53%
    21:00 +26°C° 0.5 mm 2 mps 650 mmHg 59%
    22:00 +24°C° 0.5 mm 2 mps 650 mmHg 64%
    23:00 +24°C° 0.3 mm 2 mps 650 mmHg 66%

    Tomorrow, 23 July, Monday

    Time Temperature Precipitation Wind Pressure Humidity
    00:00 +23°C° 0.3 mm 2 mps 650 mmHg 68%
    01:00 +23°C° 0.3 mm 2 mps 650 mmHg 71%
    02:00 +21°C° 0.1 mm 2 mps 649 mmHg 72%
    03:00 +22°C° 0.1 mm 1 mps 649 mmHg 73%
    04:00 +22°C° 0.1 mm 1 mps 649 mmHg 74%
    05:00 +23°C° 0 mm 1 mps 650 mmHg 69%
    06:00 +24°C° 0 mm 1 mps 650 mmHg 64%
    07:00 +25°C° 0 mm 1 mps 650 mmHg 59%
    08:00 +27°C° 0 mm 1 mps 651 mmHg 52%
    09:00 +29°C° 0 mm 1 mps 651 mmHg 44%
    10:00 +31°C° 0 mm 1 mps 651 mmHg 37%
    11:00 +32°C° 0 mm 1 mps 651 mmHg 34%
    12:00 +33°C° 0 mm 1 mps 651 mmHg 32%
    13:00 +33°C° 0 mm 1 mps 651 mmHg 29%
    14:00 +34°C° 0.1 mm 2 mps 650 mmHg 31%
    15:00 +32°C° 0.1 mm 2 mps 650 mmHg 34%
    16:00 +33°C° 0.1 mm 3 mps 649 mmHg 36%
    17:00 +31°C° 0.4 mm 3 mps 649 mmHg 42%
    18:00 +29°C° 0.4 mm 4 mps 649 mmHg 49%
    19:00 +28°C° 0.4 mm 4 mps 649 mmHg 55%
    20:00 +26°C° 1.2 mm 4 mps 649 mmHg 60%
    21:00 +25°C° 1.2 mm 4 mps 649 mmHg 66%
    22:00 +24°C° 1.2 mm 3 mps 649 mmHg 71%
    23:00 +24°C° 0.2 mm 3 mps 649 mmHg 70%

    Day after tomorrow, 24 July, Tuesday

    Time Temperature Precipitation Wind Pressure Humidity
    00:00 +24°C° 0.2 mm 2 mps 649 mmHg 69%
    01:00 +23°C° 0.2 mm 1 mps 649 mmHg 69%
    02:00 +23°C° 0.5 mm 1 mps 649 mmHg 70%
    03:00 +23°C° 0.5 mm 1 mps 649 mmHg 71%
    04:00 +22°C° 0.5 mm 1 mps 649 mmHg 72%
    05:00 +23°C° 0.3 mm 1 mps 649 mmHg 68%
    06:00 +24°C° 0.3 mm 1 mps 649 mmHg 64%
    07:00 +25°C° 0.3 mm 1 mps 650 mmHg 60%
    08:00 +27°C° 0 mm 1 mps 650 mmHg 52%
    09:00 +29°C° 0 mm 1 mps 651 mmHg 44%
    10:00 +32°C° 0 mm 1 mps 651 mmHg 36%
    11:00 +32°C° 0 mm 1 mps 651 mmHg 33%
    12:00 +33°C° 0 mm 1 mps 651 mmHg 31%
    13:00 +34°C° 0 mm 1 mps 651 mmHg 28%
    14:00 +34°C° 0.1 mm 1 mps 650 mmHg 29%
    15:00 +34°C° 0.1 mm 2 mps 650 mmHg 29%
    16:00 +34°C° 0.1 mm 3 mps 650 mmHg 30%
    17:00 +33°C° 0.2 mm 3 mps 650 mmHg 33%
    18:00 +30°C° 0.2 mm 3 mps 650 mmHg 37%
    19:00 +29°C° 0.2 mm 3 mps 649 mmHg 40%
    20:00 +28°C° 0.6 mm 3 mps 650 mmHg 44%
    21:00 +26°C° 0.6 mm 2 mps 650 mmHg 48%
    22:00 +25°C° 0.6 mm 2 mps 650 mmHg 51%
    23:00 +25°C° 0 mm 2 mps 650 mmHg 51%

    25 July, Wednesday

    Time Temperature Precipitation Wind Pressure Humidity
    00:00 +24°C° 0 mm 2 mps 650 mmHg 52%
    01:00 +24°C° 0 mm 1 mps 649 mmHg 52%
    02:00 +23°C° 0 mm 1 mps 649 mmHg 52%
    03:00 +23°C° 0 mm 1 mps 649 mmHg 52%
    04:00 +22°C° 0 mm 1 mps 649 mmHg 52%
    05:00 +24°C° 0 mm 1 mps 649 mmHg 48%
    06:00 +25°C° 0 mm 1 mps 650 mmHg 45%
    07:00 +26°C° 0 mm 1 mps 650 mmHg 42%
    08:00 +28°C° 0 mm 1 mps 651 mmHg 38%
    09:00 +30°C° 0 mm 1 mps 651 mmHg 34%
    10:00 +32°C° 0 mm 1 mps 652 mmHg 30%
    11:00 +33°C° 0 mm 1 mps 651 mmHg 27%
    12:00 +34°C° 0 mm 1 mps 651 mmHg 25%
    13:00 +35°C° 0 mm 1 mps 651 mmHg 22%
    14:00 +35°C° 0 mm 1 mps 651 mmHg 22%
    15:00 +36°C° 0 mm 2 mps 650 mmHg 21%
    16:00 +36°C° 0 mm 2 mps 650 mmHg 21%
    17:00 +34°C° 0 mm 3 mps 650 mmHg 25%
    18:00 +33°C° 0 mm 3 mps 649 mmHg 29%
    19:00 +30°C° 0 mm 4 mps 649 mmHg 33%
    20:00 +29°C° 0 mm 3 mps 649 mmHg 36%
    21:00 +27°C° 0 mm 3 mps 649 mmHg 38%
    22:00 +26°C° 0 mm 3 mps 649 mmHg 41%
    23:00 +25°C° 0 mm 2 mps 649 mmHg 42%

    26 July, Thursday

    Time Temperature Precipitation Wind Pressure Humidity
    00:00 +25°C° 0 mm 2 mps 649 mmHg 43%
    01:00 +24°C° 0 mm 2 mps 648 mmHg 43%
    02:00 +24°C° 0 mm 2 mps 648 mmHg 44%
    03:00 +24°C° 0 mm 2 mps 648 mmHg 44%
    04:00 +23°C° 0 mm 2 mps 648 mmHg 44%
    05:00 +24°C° 0 mm 1 mps 648 mmHg 42%
    06:00 +26°C° 0 mm 1 mps 649 mmHg 39%
    07:00 +27°C° 0 mm 1 mps 649 mmHg 37%
    08:00 +29°C° 0 mm 1 mps 649 mmHg 33%
    09:00 +31°C° 0 mm 1 mps 650 mmHg 28%
    10:00 +33°C° 0 mm 1 mps 650 mmHg 24%
    11:00 +34°C° 0 mm 1 mps 650 mmHg 22%
    12:00 +35°C° 0 mm 1 mps 650 mmHg 20%
    13:00 +36°C° 0 mm 1 mps 649 mmHg 18%
    14:00 +37°C° 0 mm 2 mps 649 mmHg 17%
    15:00 +37°C° 0 mm 3 mps 649 mmHg 17%
    16:00 +37°C° 0 mm 4 mps 648 mmHg 16%
    17:00 +35°C° 0 mm 4 mps 648 mmHg 20%
    18:00 +33°C° 0 mm 4 mps 647 mmHg 25%
    19:00 +30°C° 0 mm 4 mps 647 mmHg 29%
    20:00 +29°C° 0 mm 4 mps 647 mmHg 32%
    21:00 +27°C° 0 mm 3 mps 647 mmHg 34%
    22:00 +26°C° 0 mm 2 mps 647 mmHg 37%
    23:00 +25°C° 0 mm 2 mps 646 mmHg 37%

    27 July, Friday

    Time Temperature Precipitation Wind Pressure Humidity
    00:00 +25°C° 0 mm 2 mps 646 mmHg 37%
    01:00 +24°C° 0 mm 2 mps 646 mmHg 37%
    02:00 +24°C° 0 mm 2 mps 646 mmHg 37%
    03:00 +23°C° 0 mm 2 mps 646 mmHg 37%
    04:00 +23°C° 0 mm 2 mps 645 mmHg 37%
    05:00 +24°C° 0 mm 1 mps 646 mmHg 35%
    06:00 +25°C° 0 mm 1 mps 646 mmHg 33%
    07:00 +26°C° 0 mm 1 mps 647 mmHg 30%
    08:00 +28°C° 0 mm 1 mps 647 mmHg 27%
    09:00 +31°C° 0 mm 1 mps 647 mmHg 23%
    10:00 +33°C° 0 mm 1 mps 648 mmHg 19%
    11:00 +34°C° 0 mm 1 mps 647 mmHg 17%
    12:00 +35°C° 0 mm 1 mps 647 mmHg 16%
    13:00 +36°C° 0 mm 1 mps 647 mmHg 14%
    14:00 +37°C° 0 mm 2 mps 647 mmHg 14%
    15:00 +37°C° 0 mm 2 mps 647 mmHg 14%
    16:00 +37°C° 0 mm 3 mps 646 mmHg 13%
    17:00 +35°C° 0 mm 3 mps 646 mmHg 18%
    18:00 +33°C° 0 mm 3 mps 646 mmHg 22%
    19:00 +30°C° 0 mm 3 mps 645 mmHg 26%
    20:00 +29°C° 0 mm 3 mps 645 mmHg 29%
    21:00 +27°C° 0 mm 3 mps 645 mmHg 31%
    22:00 +26°C° 0 mm 2 mps 645 mmHg 34%
    23:00 +25°C° 0 mm 2 mps 645 mmHg 34%
    Show more